{"data":{"norad_id":66119,"epoch":"2026-05-24T23:43:56.587296Z","epoch_age_seconds":79991,"freshness":"FRESH","line1":"1 66119U 25237F   26144.98884939  .00017375  00000+0  59725-3 0  9990","line2":"2 66119  53.1597  45.1236 0001065  79.4920 280.6200 15.30207066 34295","mean_motion":15.30207066,"eccentricity":0.0001065,"inclination_deg":53.1597,"raan_deg":45.1236,"arg_perigee_deg":79.492,"mean_anomaly_deg":280.62,"bstar":0.00059725,"rev_number":3429,"period_min":94.104911158475,"perigee_km":474.46409194968,"apogee_km":475.92385144665,"semimajor_km":6853.3309716982,"source":"CELESTRAK","updated_at":"2026-05-25T13:38:21.062273Z"}}